Weather History for Del Rio, TX

Change the Weather History Date:

Tuesday, April 30, 2013

  Actual Average Record
Temperature  
Mean Temperature 82 °F 75 °F  
Max Temperature 95 °F 87 °F 102 °F (1951)
Min Temperature 68 °F 64 °F 38 °F (1908)
Degree Days  
Heating Degree Days 0 0  
Month to date heating degree days 24 24  
Since 1 July heating degree days 1009 1375  
Cooling Degree Days 17 10  
Month to date cooling degree days 239 223  
Year to date cooling degree days 426 329  
Growing Degree Days 32 (Base 50)    
Moisture  
Dew Point 59 °F    
Average Humidity 55    
Maximum Humidity 87    
Minimum Humidity 22    
Precipitation  
Precipitation 0.00 in 0.07 in 1.70 in (1922)
Month to date precipitation 0.36 1.65  
Year to date precipitation 1.75 4.39  
Sea Level Pressure  
Sea Level Pressure 29.70 in    
Wind  
Wind Speed 12 mph (SE)    
Max Wind Speed 18 mph    
Max Gust Speed 24 mph    
Visibility 10 miles    
Events      
T = Trace of Precipitation, MM = Missing Value Source: NWS Daily Summary

Daily Weather History Graph

Daily Weather History Graph

Search for Another Location

Airport:

Trip Planner

Search our weather history database for the weather conditions in past years. The results will help you decide how hot, cold, wet, or windy it might be!

Date:

Astronomy

Apr. 30, 2013 Rise Set
Actual Time 7:02 AM CDT 8:19 PM CDT
Civil Twilight 6:37 AM CDT 8:44 PM CDT
Nautical Twilight 6:07 AM CDT 9:14 PM CDT
Astronomical Twilight 5:36 AM CDT 9:45 PM CDT
Moon 12:39 AM CDT (4/30) 11:37 AM CDT (4/30)
Length of Visible Light 14h 07m
Length of Day
13h 17m
Waning Gibbous, 70% of the Moon is Illuminated
Apr 30
Waning Gibbous
May 2
Last Quarter
May 9
New
May 17
First Quarter
May 24
Full

Hourly Weather History & Observations

Time (CDT) Temp. Heat Index Dew Point Humidity Pressure Visibility Wind Dir Wind Speed Gust Speed Precip Events Conditions
12:53 AM 73.0 °F - 61.0 °F 66% 29.75 in 10.0 mi ESE 11.5 mph 19.6 mph N/A   Clear
1:53 AM 70.0 °F - 61.0 °F 73% 29.77 in 10.0 mi ESE 12.7 mph - N/A   Scattered Clouds
2:02 AM 71.6 °F - 60.8 °F 69% 29.81 in 10.0 mi ESE 12.7 mph - N/A   Mostly Cloudy
2:53 AM 70.0 °F - 62.1 °F 76% 29.75 in 10.0 mi SE 12.7 mph - N/A   Overcast
3:12 AM 69.8 °F - 62.6 °F 78% 29.80 in 10.0 mi ESE 12.7 mph - N/A   Overcast
3:53 AM 69.1 °F - 63.0 °F 81% 29.74 in 10.0 mi ESE 8.1 mph - N/A   Overcast
4:53 AM 69.1 °F - 63.0 °F 81% 29.73 in 10.0 mi SE 9.2 mph - N/A   Mostly Cloudy
5:11 AM 68.0 °F - 62.6 °F 83% 29.76 in 10.0 mi SE 6.9 mph - N/A   Scattered Clouds
5:53 AM 68.0 °F - 63.0 °F 84% 29.73 in 10.0 mi ESE 6.9 mph - N/A   Partly Cloudy
6:15 AM 68.0 °F - 62.6 °F 83% 29.77 in 10.0 mi ESE 8.1 mph - N/A   Mostly Cloudy
6:53 AM 68.0 °F - 64.0 °F 87% 29.74 in 10.0 mi ESE 9.2 mph - N/A   Overcast
7:53 AM 69.1 °F - 64.0 °F 84% 29.74 in 10.0 mi ESE 9.2 mph - N/A   Overcast
8:53 AM 71.1 °F - 64.0 °F 78% 29.74 in 9.0 mi SE 9.2 mph - N/A   Mostly Cloudy
9:53 AM 73.0 °F - 64.0 °F 73% 29.74 in 7.0 mi SSE 11.5 mph - N/A   Mostly Cloudy
10:53 AM 77.0 °F - 63.0 °F 62% 29.73 in 10.0 mi SSE 13.8 mph - N/A   Mostly Cloudy
11:16 AM 78.8 °F - 62.6 °F 57% 29.77 in 9.0 mi SE 11.5 mph 18.4 mph N/A   Scattered Clouds
11:53 AM 81.0 °F 81.7 °F 61.0 °F 50% 29.72 in 8.0 mi SSE 16.1 mph - N/A   Clear
12:53 PM 84.0 °F 84.4 °F 61.0 °F 46% 29.69 in 10.0 mi SE 10.4 mph 21.9 mph N/A   Clear
1:53 PM 88.0 °F 86.9 °F 57.9 °F 36% 29.65 in 10.0 mi SE 12.7 mph 21.9 mph N/A   Clear
2:53 PM 91.0 °F 89.2 °F 55.9 °F 30% 29.63 in 10.0 mi SE 13.8 mph 20.7 mph N/A   Clear
3:53 PM 93.0 °F 91.4 °F 55.9 °F 29% 29.60 in 10.0 mi SE 10.4 mph 19.6 mph N/A   Clear
4:53 PM 95.0 °F 92.5 °F 53.1 °F 24% 29.59 in 10.0 mi SSE 13.8 mph 20.7 mph N/A   Clear
5:53 PM 93.9 °F - 50.0 °F 22% 29.57 in 10.0 mi SSE 13.8 mph - N/A   Clear
6:53 PM 93.0 °F - 51.1 °F 24% 29.59 in 10.0 mi SE 15.0 mph - N/A   Clear
7:53 PM 91.0 °F - 52.0 °F 26% 29.60 in 10.0 mi SE 13.8 mph - N/A   Clear
8:53 PM 88.0 °F - 44.1 °F 22% 29.60 in 10.0 mi ESE 9.2 mph - N/A   Clear
9:53 PM 86.0 °F 84.5 °F 55.0 °F 35% 29.62 in 10.0 mi ESE 10.4 mph - N/A   Clear
10:53 PM 84.0 °F 83.5 °F 57.9 °F 41% 29.65 in 10.0 mi ESE 11.5 mph 21.9 mph N/A   Clear
11:53 PM 82.0 °F 82.4 °F 60.1 °F 47% 29.65 in 10.0 mi ESE 15.0 mph 21.9 mph N/A   Clear